CZ-6A DEB, 54424

Orbit data source: Space-Track

CZ-6A DEB, 54424 is space debris in SSO originally from a launch on Fri, 11 Nov 2022 UTC launched from the Taiyaun Space Center, China (TSC). Debris objects in space refer to the collection of defunct objects orbiting the Earth. Examples of debris include non-operational satellites, rocket bodies, and fragments generated from explosions, collisions, or faulty payload assembly.

Loading next visibility...
Identifier
54424, 2022-151EY
Orbit
SSO
Country
Flag of CNCN / PRC
Related business
Manufacturer
SAST
Mission
Spacecraft
Bus & Motor
Unknown
Mass
Unknown
Launch date (UTC)
2022-11-11 (4 years ago)
Launch vehicle
Unknown
Launch site
Taiyaun Space Center, China (TSC)
Object type
Payload
Rocket body
Debris
Shape & HBR
Unknown shape, 0.6 m
Radar Cross Section
Medium (>0.1 m² and <1 m²)

Expand to show TLE details & history
Last TLE update: 2 days ago

TLE from 2 days ago
0 CZ-6A DEB
1 54424U 22151EY  26171.40960300  .00000450  00000-0  32148-3 0  9999
2 54424  98.9699 166.7314 0103522  16.9244 343.5332 13.99843439183804
Epoch: 2026-06-20T09:49Z
TLE epoch observation values (Epoch: 2026-06-20T09:49:49.699Z)
Latitude
-0.00004°
Longitude
110.64969°
Altitude
825.067 km
Speed
7.477 km/s
True Right ascension
11h 06m 55s
True Declination
0° 00' 00"
Sunlit
Object was in daylight at epoch
Visualization orbit readout
Latitude
Unknown
Longitude
Unknown
Altitude
Unknown
Speed
Unknown
Apparent Right ascension
Unknown
Apparent Declination
Unknown
Sunlit
N/A
Visualization observer readout
Local Sidereal Time
21:33:42
Azimuth
Unknown
Elevation
Unknown
Doppler factor
Unknown
Orbital elements
Apogee altitude
966.792 km
Perigee altitude
816.278 km
Semi-major axis
7,269.672 km
Eccentricity
0.01035
Inclination
98.9699°
RAAN
166.7314°
Arg. of periapsis
16.9244°
True anomaly
343.19272°
Mean anomaly
343.5332°
Eccentric anomaly
343.36338°
Mean motion
3.50164 °/min
Orbital period
102.81 mins
BSTAR
0.00032148
Loading maneuver chart data...
Computing Atmospheric mass density...
Loading historical data...
Loading historical data...
Loading historical data...
Loading historical data...
Loading historical data...
Loading historical data...
Loading historical data...

Documentation

Showing up to 5 results
|